Location: Newark
(46.7000°N, 60.6000°W)
Time: 14:25:12
(UTC+00:00)

Transit 4A - Visible Passes

Search period start: 31 October 2020 00:00
Search period end: 10 November 2020 00:00
Orbit: 862 x 982 km, 66.8° (Epoch: 30 October)

Date Brightness Start Highest point End Pass type
(mag) Time Alt. Az. Time Alt. Az. Time Alt. Az.
31 Oct 10.2 00:30:01 10° NNW 00:32:00 14° N 00:32:00 14° N visible
31 Oct 10.2 22:52:08 10° NNW 22:54:29 12° N 22:56:50 10° NNE visible
01 Nov 10.2 00:39:17 10° NNW 00:40:59 15° N 00:40:59 15° N visible
01 Nov 10.1 21:11:12 10° WNW 21:15:09 17° NNW 21:19:07 10° NNE visible
01 Nov 10.1 23:02:01 10° NNW 23:04:29 12° N 23:06:28 11° NNE visible
02 Nov 10.3 00:48:31 10° NNW 00:49:58 15° N 00:49:58 15° N visible
02 Nov 10.1 21:21:43 10° NW 21:25:04 14° NNW 21:28:26 10° NNE visible
02 Nov 10.0 23:11:36 10° NNW 23:14:29 13° NNE 23:15:28 13° NNE visible
03 Nov 10.3 00:57:45 10° NNW 00:58:58 15° NNW 00:58:58 15° NNW visible
03 Nov 10.1 21:32:12 10° NW 21:35:01 13° N 21:37:51 10° NNE visible
03 Nov 9.9 23:21:00 10° NNW 23:24:27 15° NNE 23:24:29 15° NNE visible
04 Nov 10.4 01:06:59 10° NNW 01:08:00 14° NNW 01:08:00 14° NNW visible
04 Nov 10.1 21:42:35 10° NNW 21:45:01 12° N 21:47:28 10° NNE visible
04 Nov 9.9 23:30:19 10° NNW 23:33:31 17° NNE 23:33:31 17° NNE visible
05 Nov 10.5 01:16:14 10° NNW 01:17:01 14° NNW 01:17:01 14° NNW visible
05 Nov 10.1 21:52:40 10° NNW 21:55:02 12° N 21:57:24 10° NNE visible
05 Nov 9.8 23:39:34 10° NNW 23:42:34 18° N 23:42:34 18° N visible
06 Nov 10.6 01:25:31 10° NNW 01:26:04 13° NNW 01:26:04 13° NNW visible
06 Nov 10.0 22:02:27 10° NNW 22:05:02 12° N 22:07:37 10° NNE visible
06 Nov 9.8 23:48:47 10° NNW 23:51:38 20° N 23:51:38 20° N visible
07 Nov 10.7 01:34:50 10° NNW 01:35:09 11° NNW 01:35:09 11° NNW visible
07 Nov 9.9 22:11:57 10° NNW 22:15:01 13° NNE 22:17:13 12° NE visible
07 Nov 9.7 23:58:01 10° NNW 00:00:44 22° N 00:00:44 22° N visible
08 Nov 10.8 01:44:14 10° NW 01:44:14 10° NW 01:44:14 10° NW visible
08 Nov 9.7 22:21:19 10° NNW 22:24:57 15° NNE 22:26:20 14° NNE visible
09 Nov 9.7 00:07:16 10° NNW 00:09:51 23° N 00:09:51 23° N visible
09 Nov 9.5 22:30:36 10° NNW 22:34:51 18° NNE 22:35:28 18° NNE visible
